Regional Weather Roundup
Issued by NWS Sterling, VA

Home | Current Version | Previous Version | Graphics & Text | Print | Product List | Glossary Off
Versions: 1 2 3 4 5 6 7 8 9 10 11 12 13 14 15 16 17 18 19 20 21 22 23 24 25 26 27 28

000
ASUS41 KLWX 252310
RWRLWX

REGIONAL WEATHER ROUNDUP
NATIONAL WEATHER SERVICE BALTIMORE MD/WASHINGTON DC
700 PM EDT WED MAY 25 2016

Note: "FAIR" indicates few or no clouds below 12,000 feet
with no significant weather and/or obstructions to visibility.
 TC=TEMPERATURE CELSIUS

 * =Non NWS site. Station does not report precipitation (e.g. rain,
    snow, etc.), thunder, or fog.

DCZ001-MDZ009-015-VAZ040>042-051-053>054-260000-
WASHINGTON METRO

CITY           SKY/WX    TMP DP  RH WIND       PRES   REMARKS
WASHINGTON NAT PTSUNNY   84  51  31 W9        30.10S
DULLES         FAIR      81  55  40 S7        30.10F
ANDREWS AFB    SUNNY     82  55  39 S9        30.10S
FT BELVOIR     FAIR      83  56  39 S2        30.10S
QUANTICO       FAIR      79  59  50 SW3       30.10F
COLLEGE PARK*  FAIR      82  50  32 CALM      30.09S
LEESBURG*      FAIR      86  55  35 SW7       30.11S
MANASSAS*      SUNNY     82  52  34 S5        30.10F

$$

MDZ006>007-011-014-260000-
BALTIMORE METRO

CITY           SKY/WX    TMP DP  RH WIND       PRES   REMARKS
BWI AIRPORT    PTSUNNY   84  48  28 W6        30.08F
MD SCIENCE CTR   N/A     84  47  27 MISG      30.07F
MARTIN STATE   PTSUNNY   79  63  57 SE6       30.10F
ANNAPOLIS      MOSUNNY   84  53  34 SW5       30.08F
FORT MEADE*    MOSUNNY   79  54  41 SW6       30.11F

$$

MDZ012-015-019>023-260000-
MARYLAND EASTERN SHORE

CITY           SKY/WX    TMP DP  RH WIND       PRES   REMARKS
OCEAN CITY     MOSUNNY   81  51  35 W9        30.12S
SALISBURY      SUNNY     81  56  42 SW6       30.11F
BAY BRIDGE AP* MOSUNNY   82  55  39 S6        30.09S
CAMBRIDGE*     MOSUNNY   81  54  39 CALM      30.11S
EASTON*        SUNNY     82  61  47 SW6       30.14S

$$

MDZ017>025-260000-
SOUTHERN MARYLAND

CITY           SKY/WX    TMP DP  RH WIND       PRES   REMARKS
PATUXENT RIVER PTSUNNY   78  54  43 SE8       30.11S
ST INIGOES     SUNNY     79  56  45 E7        30.10F
LEONARDTOWN*   SUNNY     82  50  32 S5        30.13R

$$

MDZ003>005-260000-
NORTH CENTRAL MARYLAND

CITY           SKY/WX    TMP DP  RH WIND       PRES   REMARKS
FREDERICK*     SUNNY     84  61  45 S3        30.12F
HAGERSTOWN APT SUNNY     85  49  28 S6        30.09F
WESTMINSTER*   SUNNY     82  79  89 SW3       30.12  HX  93

$$

MDZ501>502-260000-
WESTERN MARYLAND

CITY           SKY/WX    TMP DP  RH WIND       PRES   REMARKS
OAKLAND*       SUNNY     72  39  30 W7        30.21F
CUMBERLAND*    SUNNY     86  50  28 CALM      30.12F

$$

VAZ025>031-260000-
SHENANDOAH VALLEY

CITY           SKY/WX    TMP DP  RH WIND       PRES   REMARKS
WINCHESTER*    FAIR      81  54  39 SE5       30.11S
FRONT ROYAL*   FAIR      81  57  44 CALM      30.10S
LURAY*         FAIR      82  54  36 SW6       30.12S
NEW MARKET*    FAIR      80  59  48 CALM      30.10S
STAUNTON*      FAIR      80  54  41 S3        30.15S
WAYNESBORO*    FAIR      80  52  38 SE5       30.15S

$$

WVZ021-048>050-054>055-260000-
EASTERN WEST VIRGINIA PANHANDLE

CITY           SKY/WX    TMP DP  RH WIND       PRES   REMARKS
MARTINSBURG    FAIR      80  55  42 S6        30.09S
PETERSBURG*    FAIR      80  63  55 CALM      30.12R

$$

VAZ036>039-050-260000-
CENTRAL FOOTHILLS

CITY           SKY/WX    TMP DP  RH WIND       PRES   REMARKS
CHARLOTTESVILL FAIR      82  55  39 S7        30.11S
CULPEPER*      FAIR      84  57  39 S3        30.11S
ORANGE*        FAIR      82  55  39 CALM      30.13S
GORDONSVILLE*  FAIR      82  58  43 CALM      30.11R
WARRENTON*     FAIR      82  52  34 CALM      30.10S

$$

VAZ055>057-260000-
NORTH AND CENTRAL PIEDMONT

CITY           SKY/WX    TMP DP  RH WIND       PRES   REMARKS
FREDERICKSBRG* FAIR      84  55  37 SW3       30.09F
STAFFORD*      FAIR      82  57  42 CALM      30.14F

$$

NCZ024-NYZ072-PAZ021-071-VAZ022-071-260000-
OTHER REGIONAL OBSERVATIONS

CITY           SKY/WX    TMP DP  RH WIND       PRES   REMARKS
NEW YORK CITY  SUNNY     83  43  24 VRB5      30.05S
PHILADELPHIA   PTSUNNY   84  47  27 SW13      30.07S
PITTSBURGH     CLOUDY    82  48  30 SW8       30.11F
ROANOKE        PTSUNNY   83  55  38 CALM      30.16S
RICHMOND       PTSUNNY   83  53  35 W9        30.11F
RALEIGH        PTSUNNY   83  57  41 W8        30.15F

$$

ANZ530>537-260000-
MARINE OBSERVATIONS

STATION/POSITION TIME  TEMP    WIND        PRES
                       AIR SEA DIR/SP/G
                 (UTC) (F)     (DEG/KT/KT) (MB)
THOMAS PT LIGHT  2300   79 64  190/ 11/ 12 1020.2F
BALT KEY BRIDGE  2200          110/  4/  5 1018.8F
COVE POINT       2200          190/ 10/ 11 1020.3F
LEWISETTA        2200      71  110/ 10/ 11 1019.3F
SOLOMONS ISLAND  2200      65  120/  7/ 10   N/A
PINEY POINT      2200          160/ 10/ 11   N/A

$$





USA.gov is the U.S. government's official web portal to all federal, state and local government web resources and services.